Regional Weather Roundup
Issued by NWS Newport/Morehead, NC

Current Version | Previous Version | Text Only | Print | Product List | Glossary Off
Versions: 1 2 3 4 5 6 7 8 9 10 11 12 13 14 15 16 17 18 19 20 21 22 23 24 25 26 27 28 29 30 31 32 33 34 35 36 37 38 39 40 41 42 43 44 45 46 47 48 49 50
000 ASUS42 KMHX 051213 RWRMHX WEATHER ROUNDUP FOR EASTERN NORTH CAROLINA NATIONAL WEATHER SERVICE NEWPORT/MOREHEAD CITY NC 800 AM EDT SUN JUL 05 2015 NOTE: "FAIR" INDICATES FEW OR NO CLOUDS BELOW 12,000 FEET WITH NO SIGNIFICANT WEATHER AND/OR OBSTRUCTIONS TO VISIBILITY NCZ015>017-031-032-045>047-102-103-051300- NORTH COAST CITY SKY/WX TMP DP RH WIND PRES REMARKS EDENTON MOSUNNY 77 72 85 W7 30.11R ELIZABETH CITY MOSUNNY 77 72 84 SW5 30.11R KITTY HAWK PTSUNNY 77 72 84 CALM 30.10R MANTEO CLOUDY 77 72 83 SW3 30.11S $$ NCZ045>047-081-094-103-104-051300- CENTRAL COAST CITY SKY/WX TMP DP RH WIND PRES REMARKS FRISCO CLOUDY 76 74 93 SW9 30.13R SWANQUARTER N/A 79 N/A N/A SW8G14 30.09S $$ NCZ095-097-098-100-101-051300- SOUTHERN COAST CITY SKY/WX TMP DP RH WIND PRES REMARKS BEAUFORT MOSUNNY 81 70 69 SW14 30.14R CEDAR ISLAND N/A 81 N/A N/A S6G12 30.18R JACKSONVILLE CLOUDY 76 67 73 SW5 30.13R PINEY ISLAND CLOUDY N/A N/A N/A SW9 30.13R WILMINGTON CLOUDY 77 68 73 SW7 30.14R $$ NCZ011>013-027>030-043-044-078>080-089-090>093-098-051300- COASTAL PLAIN CITY SKY/WX TMP DP RH WIND PRES REMARKS AHOSKIE SUNNY N/A N/A N/A CALM 30.11S CLINTON PTSUNNY 75 69 81 CALM 30.13S ELIZABETHTOWN PTSUNNY 73 69 86 CALM 30.13R GOLDSBORO PTSUNNY 77 70 79 SW6 30.10R GREENVILLE PTSUNNY 77 73 88 W3 30.12S FOG HAVELOCK MOSUNNY 78 68 71 SW7 30.14R KENANSVILLE CLOUDY 74 67 77 CALM 30.14R KINSTON PTSUNNY 77 70 78 SW3 30.13R NEW BERN PTSUNNY 77 70 79 SW6 30.14R RICHLANDS CLOUDY 75 66 73 S7 30.14R ROCKY MOUNT PTSUNNY 75 72 90 S8 30.11R WASHINGTON CLOUDY 76 73 90 SW3 30.11S WHITEVILLE PTSUNNY 72 68 86 S3 30.14R $$ AMZ130-135-150-152-154-156-158-170-250-252-270-ANZ085-086-088-633-658-670-051300- MARINE OBSERVATIONS STATION/POSITION TIME TEMP WIND PRES WAVE SWELL AIR SEA DIR/SP/G HT/PER HT/PER (UTC) (F) (DEG/KT/KT) (MB) (FT/S) (FT/S) CHESAPEAKE LIGHT 1100 80 320/ 1/ 2 1019.5 64 E VA BEACH 1150 76 76 310/ 4/ 4 1019.0 4/ 7 3/ 7 DUCK 1100 78 74 270/ 6/ 8 N/A 2 E DUCK 1111 77 N/A 2/14 OREGON INLET 1100 78 79 210/ 4/ 6 1019.3 13E OREGON INLT 1200 75 N/A 3/ 6 HATTERAS CG 1100 78 79 230/ 8/ 11 1019.4 DIAMOND BUOY 1150 80 81 230/ 17/ 21 1019.8 4/ 6 2/ 8 CAPE LOOKOUT 1200 81 230/ 7/ 12 1020.4 BEAUFORT LAB 1100 80 80 220/ 5/ 6 1019.4 30 SE NEW RVR IN NOT AVBL 27 SE WRIGHTSVLE 1100 80 240/ 8/ 10 N/A 5 SE WRIGHTSVLE 1108 78 78 260/ 8/ 12 1020.7 225 S CAPE HAT 1150 81 80 250/ 4/ 6 1023.2 4/ 9 3/ 9 41 SE CHARLESTON 1150 81 82 230/ 12/ 14 1020.5 3/ 9 2/ 9 $$

USA.gov is the U.S. government's official web portal to all federal, state and local government web resources and services.